LUF8507 UNNT-UZTT

Flight info

Callsign LUF8507
Flight time N/A
Altitude 34000
Route ALIRO1K ALIRO R484 RUBID G121 ELSUT L143 IBDAS/K0843F360 L143 GENGA N143 SMK P178 DOSOR DOSOR2T
Aircraft B738/M-SDE2E3FGHIRWXY/LB1

Departure

Time 2026-04-27 11:07
Airport Novosibirsk Tolmachevo Airport (UNNT)

Arrival

Time N/A
Airport Tashkent International Airport (UZTT)
Time Latitude Longitude Altitude Speed Heading
2026-04-27 11:00 55.01103 82.67235 357 ft 0 kts 84°
2026-04-27 11:00 55.01104 82.67240 357 ft 1 kts 84°
2026-04-27 11:01 55.01105 82.67265 358 ft 2 kts 84°
2026-04-27 11:01 55.01107 82.67313 359 ft 5 kts 87°
2026-04-27 11:01 55.01109 82.67400 359 ft 9 kts 87°
2026-04-27 11:01 55.01140 82.67481 359 ft 7 kts 37°
2026-04-27 11:02 55.01182 82.67526 358 ft 6 kts 30°
2026-04-27 11:02 55.01210 82.67553 357 ft 0 kts 30°
2026-04-27 11:02 55.01210 82.67554 357 ft 0 kts 30°
2026-04-27 11:02 55.01231 82.67576 357 ft 7 kts 31°
2026-04-27 11:03 55.01293 82.67640 355 ft 13 kts 30°
2026-04-27 11:03 55.01355 82.67703 355 ft 0 kts 32°
2026-04-27 11:03 55.01355 82.67704 355 ft 0 kts 32°
2026-04-27 11:03 55.01372 82.67721 355 ft 4 kts 31°
2026-04-27 11:04 55.01411 82.67763 355 ft 8 kts 31°
2026-04-27 11:04 55.01474 82.67758 355 ft 11 kts 311°
2026-04-27 11:04 55.01482 82.67677 355 ft 0 kts 263°
2026-04-27 11:06 55.01477 82.67617 355 ft 23 kts 261°
2026-04-27 11:06 55.01415 82.66935 354 ft 88 kts 262°
2026-04-27 11:06 55.01287 82.65531 353 ft 143 kts 262°
2026-04-27 11:06 55.01107 82.63628 617 ft 165 kts 263°
2026-04-27 11:07 55.00906 82.61731 1272 ft 165 kts 263°
2026-04-27 11:07 55.00746 82.59676 1653 ft 182 kts 265°
2026-04-27 11:07 55.00553 82.57420 2130 ft 196 kts 262°
2026-04-27 11:07 55.00328 82.55034 2747 ft 202 kts 263°
2026-04-27 11:08 55.00197 82.52581 3283 ft 211 kts 277°
2026-04-27 11:08 55.00717 82.50170 3687 ft 226 kts 302°
2026-04-27 11:08 55.01599 82.47794 4289 ft 238 kts 300°
2026-04-27 11:08 55.02329 82.45232 5101 ft 240 kts 292°
2026-04-27 11:09 55.02779 82.42420 5900 ft 243 kts 277°
2026-04-27 11:09 55.02739 82.39532 6620 ft 247 kts 259°
2026-04-27 11:09 55.02116 82.36753 7034 ft 254 kts 239°
2026-04-27 11:09 55.00911 82.34402 7187 ft 265 kts 221°
2026-04-27 11:10 54.99339 82.32697 7170 ft 267 kts 208°
2026-04-27 11:10 54.97678 82.31349 7166 ft 266 kts 208°
2026-04-27 11:10 54.95999 82.29959 7189 ft 268 kts 207°
2026-04-27 11:10 54.94299 82.28523 7693 ft 278 kts 208°
2026-04-27 11:11 54.92591 82.27056 8627 ft 274 kts 208°
2026-04-27 11:11 54.90885 82.25614 9366 ft 277 kts 208°
2026-04-27 11:11 54.89153 82.24125 10110 ft 279 kts 210°
2026-04-27 11:11 54.87396 82.22545 10684 ft 288 kts 209°
2026-04-27 11:12 54.85580 82.20982 11076 ft 303 kts 208°
2026-04-27 11:12 54.83610 82.19362 11454 ft 319 kts 207°
2026-04-27 11:12 54.81574 82.17730 11860 ft 333 kts 205°
2026-04-27 11:12 54.79301 82.16752 12362 ft 348 kts 187°
2026-04-27 11:13 54.76860 82.16927 13034 ft 356 kts 177°
2026-04-27 11:13 54.74415 82.17530 13696 ft 361 kts 175°
2026-04-27 11:13 54.71912 82.18219 14391 ft 363 kts 176°
2026-04-27 11:13 54.69422 82.18734 15071 ft 364 kts 178°
2026-04-27 11:14 54.66891 82.19248 15745 ft 366 kts 178°
2026-04-27 11:14 54.64373 82.19761 16399 ft 368 kts 179°
2026-04-27 11:14 54.61822 82.20264 17060 ft 370 kts 179°
2026-04-27 11:14 54.59306 82.20742 17698 ft 371 kts 179°
2026-04-27 11:15 54.56720 82.21579 18147 ft 382 kts 169°
2026-04-27 11:15 54.54266 82.23462 18214 ft 391 kts 155°
2026-04-27 11:15 54.52152 82.26380 18163 ft 396 kts 141°
2026-04-27 11:15 54.50399 82.30069 17833 ft 398 kts 132°
2026-04-27 11:16 54.48865 82.33993 17391 ft 398 kts 129°
2026-04-27 11:16 54.47402 82.38013 16971 ft 395 kts 128°
2026-04-27 11:16 54.45995 82.41989 16468 ft 393 kts 128°
2026-04-27 11:16 54.44583 82.46010 15943 ft 390 kts 128°
2026-04-27 11:17 54.43226 82.49979 15521 ft 387 kts 124°
2026-04-27 11:17 54.42327 82.54298 15207 ft 389 kts 103°
2026-04-27 11:17 54.42372 82.58905 14806 ft 387 kts 80°